This demonstration page uses our WeatherBlox Daily Observations layout. Learn more.

Left ArrowRight Arrow

44.8408, -93.29828

Hourly Observations for November 23, 2019

Temp ( °F °C ) Dew Point ( °F °C ) Humidity (%) Winds ( mph kmh ) Pressure ( in mb ) Visibility ( mi km ) Precip ( " mm )
12:53 am 00:53 Mostly Clear 28 -2.2 20 -6.7 72 72 SSW 5 7 29.91 1013 10 16 0.00 0.00
1:53 am 01:53 Mostly Clear 28 -2.2 19 -7.2 69 69 S 7 11 29.87 1012 10 16 0.00 0.00
2:53 am 02:53 Mostly Clear 31 -0.6 19 -7.2 61 61 SW 15 24 29.84 1011 10 16 0.00 0.00
3:53 am 03:53 Mostly Clear 31 -0.6 19 -7.2 61 61 SW 13 20 29.80 1009 10 16 0.00 0.00
4:53 am 04:53 Mostly Clear 30 -1.1 19 -7.2 64 64 SW 10 17 29.77 1008 10 16 0.00 0.00
5:53 am 05:53 Mostly Clear 30 -1.1 19 -7.2 64 64 WSW 10 17 29.75 1008 10 16 0.00 0.00
6:53 am 06:53 Mostly Clear 29 -1.7 20 -6.7 69 69 SW 8 13 29.75 1007 10 16 0.00 0.00
7:53 am 07:53 Mostly Sunny 29 -1.7 20 -6.7 69 69 WSW 7 11 29.75 1008 10 16 0.00 0.00
8:53 am 08:53 Mostly Sunny 32 0 22 -5.6 66 66 W 10 17 29.75 1008 10 16 0.00 0.00
9:53 am 09:53 Mostly Sunny 34 1.1 23 -5 64 64 WSW 10 17 29.76 1008 10 16 0.00 0.00
10:53 am 10:53 Mostly Sunny 39 3.9 25 -3.9 57 57 WSW 8 13 29.74 1007 10 16 0.00 0.00
11:53 am 11:53 Mostly Sunny 41 5 26 -3.3 55 55 W 9 15 29.73 1007 10 16 0.00 0.00
12:53 pm 12:53 Mostly Sunny 43 6.1 26 -3.3 51 51 WNW 6 9 29.71 1006 10 16 0.00 0.00
1:53 pm 13:53 Mostly Sunny 44 6.7 27 -2.8 51 51 W 8 13 29.70 1006 10 16 0.00 0.00
3:53 pm 15:53 Partly Cloudy 42 5.6 29 -1.7 60 60 W 7 11 29.71 1006 10 16 0.00 0.00
4:53 pm 16:53 Mostly Clear 40 4.4 29 -1.7 65 65 WSW 6 9 29.72 1007 10 16 0.00 0.00
5:53 pm 17:53 Mostly Clear 39 3.9 29 -1.7 67 67 SW 6 9 29.71 1006 10 16 0.00 0.00
6:53 pm 18:53 Mostly Clear 37 2.8 29 -1.7 73 73 SW 5 7 29.71 1006 10 16 0.00 0.00
7:53 pm 19:53 Mostly Clear 39 3.9 31 -0.6 73 73 W 12 19 29.71 1006 10 16 0.00 0.00
8:53 pm 20:53 Mostly Clear 36 2.2 29 -1.7 76 76 SW 5 7 29.70 1006 10 16 0.00 0.00
9:53 pm 21:53 Mostly Clear 35 1.7 29 -1.7 78 78 SW 5 7 29.69 1005 10 16 0.00 0.00
10:53 pm 22:53 Mostly Cloudy 36 2.2 29 -1.7 76 76 SW 8 13 29.66 1005 10 16 0.00 0.00
11:53 pm 23:53 Mostly Clear 35 1.7 29 -1.7 78 78 SW 6 9 29.65 1004 10 16 0.00 0.00

Powered by AerisWeather